Location: Freistadt
(48.5112°N, 14.5013°E)
Time: 09:25:40
(UTC+02:00)

PCSat - Pass Details

Date: 26 March 2023
Orbit: 783 x 794 km, 67.1° (Epoch: 29 May)

Event Time Altitude Azimuth Distance (km) Brightness Sun altitude
Rises 21:18:28 0° 298° (WNW) 3,289 14.5 -19.1°
Reaches altitude 10° 21:22:56 10° 332° (NNW) 2,364 12.8 -19.7°
Maximum altitude 21:24:35 11° 350° (N) 2,277 12.4 -20.0°
Drops below altitude 10° 21:26:14 10° 8° (N) 2,367 12.3 -20.2°
Sets 21:30:43 0° 42° (NE) 3,301 12.7 -20.9°
